sat.trackr.live / text

‹ back to catalog

USA 286

NORAD 43446 · 2018-036F

PAYLOAD ACTIVE UNKNOWN

§ Identity

Operator
Country
US
Launch date
2018-04-14
Launch site
AFETR
Launch vehicle
Mass (kg)
RCS (m²)

External: N2YO · Heavens-Above · Gunter

§ Orbital elements

Epoch: 2026-09-19T19:16:55.474176Z

Period
1,410.06 min
Inclination
7.3384°
Eccentricity
0.0010442
Mean motion
1.02123514 rev/d
Perigee alt
35,231.9 km
Apogee alt
35,318.8 km
Semi-major
41,653.5 km
B*
0.0000e+0
RAAN
65.7449°
Arg perigee
165.6602°
Mean anomaly
147.6109°
Rev number
2,788

§ Raw data

USA 2861 43446U 18036F   26262.80341984 -.00000237  00000+0  00000+0 0  99952 43446   7.3384  65.7449 0010442 165.6602 147.6109  1.02123514 27882

JSON: /api/v1/satellites/43446 · /tle

For live sub-satellite position, see the globe view (requires WebGL).

§ Visibility from observer

Set your observer location to see the next 7 days of passes ≥ 10°. The values pass through the URL so the page stays shareable.

No JS? Fill the form by hand. The geolocation button needs JavaScript.